Beatrice, NE

11:37 AM CDT on April 19, 2018 (GMT -0500)
Beatrice Municipal

Weather History for KBIE - October, 2013

Change the Weather History Date:

Tuesday, October 15, 2013

  Actual Average Record
Temperature  
Mean Temperature 47 °F -  
Max Temperature 52 °F 69 °F 87 °F (1963)
Min Temperature 42 °F 43 °F 27 °F (1969)
Degree Days  
Heating Degree Days 18    
Moisture  
Dew Point 38 °F    
Average Humidity 71    
Maximum Humidity 88    
Minimum Humidity 58    
Precipitation  
Precipitation 0.42 in - - ()
Sea Level Pressure  
Sea Level Pressure 30.01 in    
Wind  
Wind Speed 14 mph (WNW)    
Max Wind Speed 26 mph    
Max Gust Speed 32 mph    
Visibility 10 miles    
Events      
Averages and records for this station are not official NWS values.
T = Trace of Precipitation, MM = Missing Value Source: NWS Daily Summary

Daily Weather History Graph

Daily Weather History Graph

Search for Another Location

Airport or City:

Astronomy

Oct. 15, 2013 Rise Set
Actual Time 7:38 AM CDT 6:46 PM CDT
Civil Twilight 7:10 AM CDT 7:14 PM CDT
Nautical Twilight 6:39 AM CDT 7:45 PM CDT
Astronomical Twilight 6:07 AM CDT 8:17 PM CDT
Moon 4:52 PM CDT (10/15) 4:01 AM CDT (10/15)
Length of Visible Light 12h 03m
Length of Day
11h 08m
Waxing Gibbous, 88% of the Moon is Illuminated
Oct 15
Waxing Gibbous
Oct 18
Full
Oct 26
Last Quarter
Nov 3
New
Nov 9
First Quarter

Hourly Weather History & Observations

Time (CDT) Temp. Windchill Dew Point Humidity Pressure Visibility Wind Dir Wind Speed Gust Speed Precip Events Conditions
12:15 AM 52.7 °F - 47.7 °F 83% 29.86 in 10.0 mi WNW 13.8 mph 17.3 mph N/A   Scattered Clouds
12:35 AM 51.8 °F - 46.6 °F 82% 29.87 in 10.0 mi WNW 11.5 mph - N/A   Clear
12:55 AM 51.4 °F - 45.5 °F 80% 29.88 in 10.0 mi West 13.8 mph 23.0 mph N/A   Clear
1:15 AM 50.9 °F - 45.1 °F 81% 29.88 in 10.0 mi West 9.2 mph - N/A   Scattered Clouds
1:35 AM 50.9 °F - 44.8 °F 80% 29.89 in 10.0 mi WNW 11.5 mph - N/A   Overcast
1:55 AM 50.7 °F - 45.1 °F 81% 29.89 in 10.0 mi West 12.7 mph 16.1 mph N/A   Overcast
2:15 AM 50.0 °F - 45.0 °F 83% 29.90 in 10.0 mi West 10.4 mph - N/A   Overcast
2:35 AM 49.3 °F - 43.0 °F 79% 29.91 in 10.0 mi West 13.8 mph 20.7 mph N/A   Overcast
2:55 AM 47.7 °F - 41.9 °F 80% 29.91 in 10.0 mi WNW 12.7 mph - N/A   Scattered Clouds
3:15 AM 46.6 °F - 41.0 °F 81% 29.92 in 10.0 mi WNW 13.8 mph 20.7 mph N/A   Clear
3:35 AM 46.0 °F 39.6 °F 40.5 °F 81% 29.92 in 10.0 mi WNW 15.0 mph 20.7 mph N/A   Clear
3:55 AM 45.5 °F 39.9 °F 40.1 °F 81% 29.92 in 10.0 mi WNW 11.5 mph 18.4 mph N/A   Clear
4:15 AM 44.4 °F 39.0 °F 40.1 °F 85% 29.93 in 10.0 mi West 10.4 mph - N/A   Clear
4:35 AM 43.7 °F 40.3 °F 40.1 °F 87% 29.93 in 10.0 mi West 5.8 mph - N/A   Scattered Clouds
4:55 AM 43.3 °F 38.1 °F 40.1 °F 88% 29.93 in 10.0 mi West 9.2 mph - N/A   Clear
5:15 AM 43.3 °F 38.6 °F 39.6 °F 87% 29.94 in 10.0 mi West 8.1 mph - N/A   Clear
5:35 AM 43.7 °F 38.6 °F 39.2 °F 84% 29.95 in 10.0 mi West 9.2 mph - N/A   Scattered Clouds
5:55 AM 44.8 °F 39.9 °F 39.2 °F 81% 29.96 in 10.0 mi West 9.2 mph - N/A   Overcast
6:15 AM 45.5 °F 41.3 °F 39.6 °F 80% 29.96 in 10.0 mi West 8.1 mph - N/A   Overcast
6:35 AM 45.9 °F 39.4 °F 37.8 °F 73% 29.96 in 10.0 mi WNW 15.0 mph 25.3 mph N/A   Mostly Cloudy
6:55 AM 44.4 °F 37.9 °F 36.9 °F 75% 29.97 in 10.0 mi WNW 13.8 mph - N/A   Scattered Clouds
7:15 AM 42.8 °F 37.5 °F 37.6 °F 82% 29.97 in 10.0 mi West 9.2 mph - N/A   Clear
7:35 AM 43.0 °F 37.2 °F 36.9 °F 79% 29.97 in 10.0 mi West 10.4 mph - N/A   Clear
7:55 AM 43.0 °F 36.8 °F 36.7 °F 78% 29.98 in 10.0 mi West 11.5 mph - N/A   Clear
8:15 AM 43.3 °F 36.1 °F 36.7 °F 77% 29.98 in 10.0 mi West 15.0 mph 19.6 mph N/A   Clear
8:35 AM 44.1 °F 36.8 °F 36.1 °F 74% 29.99 in 10.0 mi WNW 16.1 mph 20.7 mph N/A   Clear
8:55 AM 44.6 °F 38.1 °F 36.9 °F 74% 30.00 in 10.0 mi West 13.8 mph 17.3 mph N/A   Clear
9:15 AM 45.3 °F 38.4 °F 37.6 °F 74% 30.00 in 10.0 mi West 16.1 mph - N/A   Clear
9:35 AM 45.9 °F 38.8 °F 37.2 °F 72% 30.01 in 10.0 mi WNW 17.3 mph 20.7 mph N/A   Clear
9:55 AM 46.6 °F - 36.3 °F 67% 30.01 in 10.0 mi WNW 20.7 mph 29.9 mph N/A   Clear
10:15 AM 47.3 °F - 36.1 °F 65% 30.02 in 10.0 mi WNW 20.7 mph 25.3 mph N/A   Clear
10:35 AM 47.8 °F - 36.7 °F 65% 30.02 in 10.0 mi WNW 24.2 mph 31.1 mph N/A   Clear
10:55 AM 48.6 °F - 36.5 °F 63% 30.03 in 10.0 mi WNW 20.7 mph 29.9 mph N/A   Scattered Clouds
11:15 AM 49.3 °F - 36.5 °F 61% 30.04 in 10.0 mi NW 26.5 mph 32.2 mph N/A   Mostly Cloudy
11:35 AM 49.3 °F - 36.3 °F 61% 30.03 in 10.0 mi NW 20.7 mph 28.8 mph N/A   Overcast
11:55 AM 50.0 °F - 37.2 °F 62% 30.04 in 10.0 mi NW 21.9 mph 28.8 mph N/A   Mostly Cloudy
12:15 PM 50.4 °F - 37.0 °F 60% 30.04 in 10.0 mi WNW 20.7 mph 27.6 mph N/A   Overcast
12:35 PM 50.5 °F - 36.9 °F 59% 30.04 in 10.0 mi NW 25.3 mph 31.1 mph N/A   Overcast
12:55 PM 50.4 °F - 36.5 °F 59% 30.03 in 10.0 mi WNW 18.4 mph 29.9 mph N/A   Overcast
1:15 PM 50.4 °F - 36.5 °F 59% 30.03 in 10.0 mi WNW 21.9 mph 28.8 mph N/A   Overcast
1:35 PM 50.9 °F - 36.7 °F 58% 30.03 in 10.0 mi WNW 19.6 mph 28.8 mph N/A   Overcast
1:55 PM 50.4 °F - 36.5 °F 59% 30.03 in 10.0 mi WNW 23.0 mph 28.8 mph N/A   Overcast
2:15 PM 50.9 °F - 37.2 °F 59% 30.03 in 10.0 mi WNW 21.9 mph 27.6 mph N/A   Overcast
2:35 PM 50.9 °F - 37.2 °F 59% 30.03 in 10.0 mi WNW 20.7 mph 27.6 mph N/A   Overcast
2:55 PM 50.0 °F - 36.9 °F 61% 30.03 in 10.0 mi WNW 20.7 mph 27.6 mph N/A   Overcast
3:15 PM 50.4 °F - 36.7 °F 59% 30.03 in 10.0 mi NW 19.6 mph 26.5 mph N/A   Overcast
3:35 PM 50.9 °F - 37.0 °F 59% 30.03 in 10.0 mi WNW 18.4 mph 27.6 mph N/A   Overcast
3:55 PM 50.9 °F - 37.6 °F 60% 30.03 in 10.0 mi NW 20.7 mph 26.5 mph N/A   Overcast
4:15 PM 50.5 °F - 37.2 °F 60% 30.03 in 10.0 mi NW 19.6 mph 25.3 mph N/A   Overcast
4:35 PM 50.5 °F - 37.0 °F 60% 30.04 in 10.0 mi NW 17.3 mph 27.6 mph N/A   Overcast
4:55 PM 50.2 °F - 37.0 °F 61% 30.04 in 10.0 mi NW 16.1 mph 24.2 mph N/A   Overcast
5:15 PM 50.0 °F - 37.6 °F 62% 30.04 in 10.0 mi NW 18.4 mph 21.9 mph N/A   Overcast
5:35 PM 50.0 °F - 37.6 °F 62% 30.05 in 10.0 mi NW 17.3 mph 21.9 mph N/A   Overcast
5:55 PM 49.1 °F - 37.0 °F 63% 30.05 in 10.0 mi NW 19.6 mph 23.0 mph N/A   Overcast
6:15 PM 48.4 °F - 37.0 °F 65% 30.05 in 10.0 mi NW 16.1 mph 21.9 mph N/A   Overcast
6:35 PM 48.2 °F - 36.9 °F 65% 30.06 in 10.0 mi NW 15.0 mph 21.9 mph N/A   Overcast
6:55 PM 47.8 °F - 36.9 °F 66% 30.06 in 10.0 mi NW 12.7 mph 24.2 mph N/A   Overcast
7:15 PM 47.7 °F - 37.0 °F 67% 30.07 in 10.0 mi NW 16.1 mph 20.7 mph N/A   Overcast
7:55 PM 47.3 °F - 36.7 °F 67% 30.09 in 10.0 mi WNW 12.7 mph 21.9 mph N/A   Overcast
8:15 PM 46.8 °F - 36.5 °F 67% 30.10 in 10.0 mi WNW 12.7 mph 20.7 mph N/A   Overcast
8:35 PM 46.6 °F - 36.7 °F 68% 30.10 in 10.0 mi WNW 13.8 mph - N/A   Overcast
8:55 PM 46.4 °F 41.1 °F 37.2 °F 70% 30.10 in 10.0 mi WNW 11.5 mph - N/A   Overcast
9:15 PM 46.4 °F 40.4 °F 37.2 °F 70% 30.10 in 10.0 mi WNW 13.8 mph 18.4 mph N/A   Overcast
9:35 PM 46.4 °F 41.9 °F 37.4 °F 71% 30.10 in 10.0 mi NW 9.2 mph 12.7 mph N/A   Overcast
9:55 PM 46.4 °F 40.7 °F 37.0 °F 70% 30.11 in 10.0 mi NW 12.7 mph 18.4 mph N/A   Overcast
10:15 PM 46.0 °F 40.6 °F 37.4 °F 72% 30.11 in 10.0 mi NW 11.5 mph 18.4 mph N/A   Overcast
10:35 PM 45.9 °F 40.8 °F 37.6 °F 73% 30.12 in 10.0 mi NW 10.4 mph - N/A   Overcast
10:55 PM 45.7 °F 40.2 °F 37.6 °F 73% 30.12 in 10.0 mi NW 11.5 mph - N/A   Overcast
11:15 PM 45.5 °F 39.6 °F 37.9 °F 75% 30.12 in 10.0 mi NW 12.7 mph - N/A   Overcast
11:35 PM 45.5 °F 39.2 °F 38.5 °F 76% 30.12 in 10.0 mi NW 13.8 mph 17.3 mph N/A   Overcast
11:55 PM 45.1 °F 39.9 °F 38.8 °F 79% 30.12 in 10.0 mi WNW 10.4 mph - N/A   Overcast